Regional Weather Roundup
Issued by NWS

Home | Current Version | Previous Version | Text Only | Print | Product List | Glossary Off
Versions: 1 2 3 4 5 6 7 8 9 10 11 12 13 14 15 16 17 18 19 20 21 22 23 24 25 26 27 28 29 30 31 32 33 34 35 36 37 38 39 40 41 42 43 44 45 46 47 48 49 50

000
ASUS43 KOAX 210002
RWRNE

WEATHER ROUNDUP FOR NEBRASKA
NATIONAL WEATHER SERVICE OMAHA NE
600 PM CST TUE FEB 20 2018

NOTES: SATELLITE DATA IS BEING USED TO AUGMENT CLOUD COVER ABOVE
       12000 FEET.
       "FAIR" INDICATES FEW OR NO CLOUDS BELOW 12,000 FEET WITH NO
       SIGNIFICANT WEATHER AND/OR OBSTRUCTIONS TO VISIBILITY.


NEZ001>004-019>022-054>056-210100-
NEBRASKA PANHANDLE

CITY           SKY/WX    TMP DP  RH WIND       PRES   REMARKS
SCOTTSBLUFF    FAIR      11  -1  58 NW5       30.12R WCI   3
6HR MIN TEMP:   5; 6HR MAX TEMP:  13; 6HR PCP: TRACE;

ALLIANCE       FAIR       4  -4  69 NE6       30.11R WCI  -7
6HR MIN TEMP:  -2; 6HR MAX TEMP:  10;

CHADRON        FAIR       6  -7  54 W14       30.18R WCI -11
6HR MIN TEMP:  -1; 6HR MAX TEMP:   7;

GORDON         FAIR       5  -8  56 NW6       30.14S WCI  -6
6HR MIN TEMP:   1; 6HR MAX TEMP:   7;

KIMBALL        FAIR       4  -3  71 SW8       30.06R WCI  -9
SIDNEY         FAIR      10  -4  53 N3        30.11R
6HR MIN TEMP:   6; 6HR MAX TEMP:  12;

$$

NEZ057>060-069>072-079>082-210100-
SOUTHWEST NEBRASKA

CITY           SKY/WX    TMP DP  RH WIND       PRES   REMARKS
NORTH PLATTE   FAIR      12  -1  56 N8        30.25R WCI   0
6HR MIN TEMP:  10; 6HR MAX TEMP:  15;

IMPERIAL       FAIR      12   0  58 N7        30.20R WCI   1
6HR MIN TEMP:  10; 6HR MAX TEMP:  16;

LEXINGTON      FAIR      16   4  61 N9        30.27R WCI   4
MCCOOK         FAIR      16   4  59 N10       30.26R WCI   4
6HR MIN TEMP:  14; 6HR MAX TEMP:  19;

OGALLALA       FAIR      13   0  56 N9        30.19R WCI   1
$$

NEZ005>010-023>029-035>040-094-210100-
NORTH CENTRAL NEBRASKA

CITY           SKY/WX    TMP DP  RH WIND       PRES   REMARKS
VALENTINE      FAIR       7  -5  57 NW7       30.24R WCI  -5
6HR MIN TEMP:   6; 6HR MAX TEMP:  10;

AINSWORTH      FAIR       8  -1  69 NW5       30.25R WCI  -1
BROKEN BOW     FAIR       9  -1  64 N9        30.26R WCI  -4
6HR MIN TEMP:   9; 6HR MAX TEMP:  13;

O`NEILL        FAIR       7   0  74 NW9       30.30R WCI  -7
ORD            FAIR      11   2  67 N13       30.29R WCI  -4
6HR MIN TEMP:  10; 6HR MAX TEMP:  14;

THEDFORD       FAIR       8  -1  67 NW5       30.23R WCI  -1
$$

NEZ041-046>049-061>064-073>077-083>087-210100-
SOUTH CENTRAL NEBRASKA

CITY           SKY/WX    TMP DP  RH WIND       PRES   REMARKS
GRAND ISLAND   FAIR      15   4  61 N17       30.28R WCI  -1
6HR MIN TEMP:  14; 6HR MAX TEMP:  19;

AURORA         FAIR      16   5  64 N17       30.27R WCI   0
HASTINGS       FAIR      16   4  59 N14       30.27R WCI   2
6HR MIN TEMP:  14; 6HR MAX TEMP:  20;

HEBRON         FAIR      21   9  59 N15G23    30.28R WCI   8
HOLDREGE       FAIR      15   6  65 N9        30.26R WCI   4
KEARNEY        FAIR      14   4  64 N14       30.28  WCI  -1
YORK           FAIR      16   7  67 N16       30.28R WCI   0
$$

NEZ011>018-030>034-042>045-210100-
NORTHEAST NEBRASKA

CITY           SKY/WX    TMP DP  RH WIND       PRES   REMARKS
NORFOLK        FAIR      11   4  73 NW17      30.29R WCI  -6
6HR MIN TEMP:  10; 6HR MAX TEMP:  15;

ALBION         FAIR      12   4  70 NW12      30.30R WCI  -2
BLAIR          FAIR      17  11  78 NW10      30.28R WCI   4
COLUMBUS       FAIR      14   7  73 NW15      30.31R WCI  -1
FREMONT        FAIR      17  10  73 NW12      30.31R WCI   4
TEKAMAH        FAIR      16   8  71 NW14      30.32R WCI   2
6HR MIN TEMP:  16; 6HR MAX TEMP:  19;

WAYNE          FAIR      11   4  73 NW15      30.30R WCI  -5
$$

NEZ050>053-065>068-078-088>093-210100-
SOUTHEAST NEBRASKA

CITY           SKY/WX    TMP DP  RH WIND       PRES   REMARKS
LINCOLN        FAIR      19   9  65 N17       30.31R WCI   4
6HR MIN TEMP:  18; 6HR MAX TEMP:  22;

OMAHA EPPLEY   MOCLDY    17  10  74 NW17      30.30R WCI   1
6HR MIN TEMP:  17; 6HR MAX TEMP:  20; 6HR PCP: TRACE;

BEATRICE       FAIR      21  12  68 N17G23    30.27R WCI   7
FALLS CITY     MOCLDY    20  12  71 NW16G24   30.26R WCI   6
6HR MIN TEMP:  20; 6HR MAX TEMP:  22;

NEBRASKA CITY  FAIR      19  14  82 N16       30.26R WCI   4
PLATTSMOUTH    FAIR      18  12  77 NW14G22   30.27R WCI   4
$$

NEZ044-045-051>053-067-210100-
OMAHA AREA

CITY           SKY/WX    TMP DP  RH WIND       PRES   REMARKS
OMAHA EPPLEY   MOCLDY    17  10  74 NW17      30.30R WCI   1
6HR MIN TEMP:  17; 6HR MAX TEMP:  20; 6HR PCP: TRACE;

BLAIR          FAIR      17  11  78 NW10      30.28R WCI   4
FREMONT        FAIR      17  10  73 NW12      30.31R WCI   4
MILLARD        FAIR      19  10  68 NW9G17    30.31R WCI   8
OFFUTT AFB     CLOUDY    18  10  69 NW14      30.28R WCI   4
PLATTSMOUTH    FAIR      18  12  77 NW14G22   30.27R WCI   4
WAHOO          FAIR      18  10  73 N16       30.30R WCI   3
$$




USA.gov is the U.S. government's official web portal to all federal, state and local government web resources and services.